Flag for India Weather past 2 weeks in Thiruvananthapuram, Kerala, India

Now
88 °F

Haze.


Feels Like: 102 °F
Forecast: 78 / 88 °F
Wind: No wind

Location: Thiruvananthapuram

Current Time: Mar 3, 2015 at 10:21:59 AM

Latest Report: Mar 3, 2015 at 9:40 AM


Visibility: 2 mi

Pressure: 29.89 "Hg

Humidity: 75%

Dew point: 79 °F

Location of ThiruvananthapuramLocation

Historic Weather in Thiruvananthapuram — Graph

°F

Thiruvananthapuram temperature yesterday

Maximum temperature yesterday: 91 °F (at 11:40 AM)
Minimum temperature yesterday: 81 °F (at 1:40 AM)
Average temperature yesterday: 85 °F

Past Weeks' High & Low Weather Summary

 TemperatureHumidityPressure
High93 °F (Feb 28, 2:40 PM)89% (Feb 26, 1:40 AM)29.95 "Hg (Feb 26, 1:40 AM)
Low73 °F (Feb 17, 7:40 AM)38% (Feb 22, 10:40 AM)29.53 "Hg (Mar 2, 4:40 AM)
Average83 °F70%29.83 "Hg
* Reported Feb 16 7:40 AM — Mar 3 7:40 AM, Thiruvananthapuram, Weather by CustomWeather, © 2015

Note: Actual official high and low records may vary slightly from our data, if they occured in-between our weather recording intervals... More about our weather records

Advertising

Thiruvananthapuram weather history for previous 24 hours

 ConditionsComfort  
Time TempWeatherWind HumidityBarometerVisibility
7:40 AM
Tue, Mar 3
82 °FHaze.No wind79%29.86 "Hg2 mi
6:40 AM79 °FPassing clouds.No wind84%29.83 "Hg2 mi
5:40 AM81 °FPassing clouds.No wind79%29.83 "Hg2 mi
4:40 AM81 °FPassing clouds.No wind79%29.83 "Hg2 mi
3:40 AM81 °FPassing clouds.No wind84%29.83 "Hg2 mi
1:40 AM81 °FPartly cloudy.No wind84%29.86 "Hg2 mi
12:40 AM81 °FPartly cloudy.No wind84%29.89 "Hg2 mi
11:40 PM
Mon, Mar 2
81 °FPartly cloudy.No wind84%29.89 "Hg2 mi
10:40 PM82 °FPartly cloudy.No wind79%29.92 "Hg2 mi
9:40 PM82 °FPartly cloudy.No wind84%29.89 "Hg2 mi
8:40 PM82 °FPartly cloudy.No wind79%29.89 "Hg2 mi
7:40 PM84 °FPartly cloudy.No wind74%29.86 "Hg2 mi
5:40 PM88 °FPassing clouds.2 mph70%29.80 "Hg4 mi
4:40 PM90 °FPassing clouds.3 mph71%29.80 "Hg4 mi
3:40 PM90 °FPassing clouds.3 mph71%29.77 "Hg4 mi
2:40 PM90 °FPassing clouds.6 mph71%29.80 "Hg4 mi
1:40 PM91 °FPassing clouds.5 mph67%29.83 "Hg4 mi
12:40 PM91 °FScattered clouds.3 mph63%29.86 "Hg5 mi
11:40 AM91 °FHot.5 mph67%29.89 "Hg4 mi
10:40 AM90 °FScattered clouds.2 mph67%29.92 "Hg4 mi
Weather by CustomWeather, © 2015

See weather overviewHow to use our weather pages